Flag for France Weather past 2 weeks in Brest, France

Now
55 °F

Passing clouds.


Feels Like: 55 °F
Forecast: 53 / 62 °F
Wind: 5 mph from Northwest

Location: Brest Airport

Current Time: Oct 25, 2014 at 1:52:20 AM

Latest Report: Oct 25, 2014 at 1:30 AM


Visibility: 3 mi

Pressure: 30.09 "Hg

Humidity: 94%

Dew point: 54 °F

Location of BrestLocation

Historic Weather in Brest — Graph

°F

Brest temperature yesterday

Maximum temperature yesterday: 63 °F (at 1:30 PM)
Minimum temperature yesterday: 55 °F (at 10:00 PM)
Average temperature yesterday: 59 °F

Past Weeks' High & Low Weather Summary

 TemperatureHumidityPressure
High66 °F (Oct 18, 2:30 PM)100% (Oct 11, 2:00 AM)30.45 "Hg (Oct 11, 2:00 AM)
Low43 °F (Oct 14, 4:30 AM)55% (Oct 14, 6:30 PM)29.50 "Hg (Oct 15, 10:30 PM)
Average57 °F85%29.90 "Hg
* Reported Oct 10 1:00 AM — Oct 25 1:00 AM, Brest, Weather by CustomWeather, © 2014

Note: Actual official high and low records may vary slightly from our data, if they occured in-between our weather recording intervals... More about our weather records

Advertising

Brest weather history for previous 24 hours

 ConditionsComfort  
Time TempWeatherWind HumidityBarometerVisibility
1:00 AM
Oct 25
55 °FPassing clouds.2 mph88%30.09 "HgN/A
12:30 AM55 °FMostly cloudy.No wind88%30.09 "HgN/A
12:00 AM55 °FPassing clouds.2 mph88%30.07 "HgN/A
11:30 PM
Oct 24
55 °FMostly cloudy.3 mph94%30.07 "HgN/A
11:00 PM55 °FPassing clouds.2 mph88%30.07 "HgN/A
10:30 PM55 °FPassing clouds.2 mph94%30.07 "HgN/A
10:00 PM55 °FPassing clouds.3 mph94%30.07 "HgN/A
9:30 PM57 °FLow clouds.9 mph94%30.07 "HgN/A
9:00 PM57 °FOvercast.7 mph94%30.04 "HgN/A
8:30 PM57 °FPassing clouds.2 mph94%30.04 "HgN/A
8:00 PM57 °FPartly sunny.3 mph94%30.04 "HgN/A
7:30 PM59 °FMostly cloudy.5 mph94%30.01 "HgN/A
7:00 PM59 °FMostly cloudy.6 mph94%30.01 "HgN/A
6:30 PM59 °FMostly cloudy.7 mph94%30.01 "HgN/A
6:00 PM59 °FMostly cloudy.7 mph94%30.01 "HgN/A
5:30 PM61 °FPartly sunny.9 mph88%30.01 "HgN/A
5:00 PM61 °FLow clouds.6 mph94%29.98 "HgN/A
4:30 PM63 °FLow clouds.7 mph94%29.98 "Hg4 mi
4:00 PM61 °FDrizzle. Low clouds.12 mph94%30.01 "Hg2 mi
3:30 PM61 °FDrizzle. Low clouds.9 mph100%30.01 "Hg2 mi
3:00 PM61 °FDrizzle. Low clouds.12 mph100%30.01 "Hg3 mi
2:30 PM61 °FDrizzle. Partly sunny.13 mph94%30.01 "Hg4 mi
2:00 PM63 °FDrizzle. Partly sunny.10 mph88%30.01 "Hg4 mi
1:30 PM63 °FPartly sunny.12 mph88%30.01 "HgN/A
1:00 PM61 °FPartly sunny.10 mph94%30.04 "HgN/A
12:30 PM61 °FPartly sunny.10 mph94%30.04 "Hg5 mi
12:00 PM59 °FLight rain. Mostly cloudy.8 mph100%30.04 "Hg5 mi
11:30 AM59 °FLight rain. More clouds than sun.8 mph94%30.04 "HgN/A
11:00 AM59 °FDrizzle. Mostly cloudy.13 mph94%30.04 "Hg2 mi
10:30 AM61 °FLight rain. Low clouds.12 mph94%30.01 "HgN/A
10:00 AM61 °FLight rain. Low clouds.10 mph94%30.04 "HgN/A
9:30 AM61 °FDrizzle. Mostly cloudy.10 mph94%30.01 "Hg2 mi
9:00 AM59 °FDrizzle. Mostly cloudy.8 mph100%30.01 "Hg2 mi
8:30 AM59 °FDrizzle. Mostly cloudy.9 mph100%30.01 "Hg2 mi
8:00 AM59 °FDrizzle. Low clouds.9 mph100%30.01 "Hg3 mi
7:30 AM59 °FDrizzle. Low clouds.12 mph100%30.04 "Hg3 mi
7:00 AM59 °FLight rain. Low clouds.10 mph100%30.04 "Hg3 mi
6:30 AM59 °FLight rain. Fog.12 mph100%30.04 "Hg2 mi
6:00 AM59 °FLight rain. Low clouds.12 mph100%30.04 "Hg4 mi
5:30 AM59 °FLight rain. Low clouds.15 mph100%30.04 "Hg6 mi
4:00 AM59 °FLight rain. Low clouds.14 mph94%30.07 "Hg4 mi
3:30 AM59 °FLight rain. Passing clouds.13 mph94%30.09 "Hg4 mi
3:00 AM59 °FLight rain. Passing clouds.13 mph94%30.09 "Hg4 mi
2:30 AM59 °FLight rain. Passing clouds.13 mph94%30.09 "Hg4 mi
2:00 AM59 °FLight rain. Passing clouds.13 mph94%30.09 "Hg5 mi
1:30 AM59 °FLight rain. Passing clouds.13 mph94%30.09 "Hg5 mi
1:00 AM59 °FLight rain. Passing clouds.10 mph94%30.09 "HgN/A
Weather by CustomWeather, © 2014

See weather overviewHow to use our weather pages